TimeCST,TemperatureF,Dew PointF,Humidity,Sea Level PressureIn,VisibilityMPH,Wind Direction,Wind SpeedMPH,Gust SpeedMPH,PrecipitationIn,Events,Conditions,WindDirDegrees,DateUTC
12:04 AM,69.1,64.0,84,29.88,10.0,West,9.2,-,N/A,,Overcast,260,2014-01-11 06:04:00
12:21 AM,69.1,64.0,84,29.88,10.0,West,8.1,-,N/A,,Overcast,260,2014-01-11 06:21:00
12:36 AM,68.0,64.0,87,29.88,10.0,West,8.1,-,N/A,,Overcast,260,2014-01-11 06:36:00
12:53 AM,68.0,64.0,87,29.88,9.0,WSW,8.1,-,N/A,,Overcast,240,2014-01-11 06:53:00
1:45 AM,64.9,62.1,90,29.88,6.0,SW,4.6,-,N/A,,Scattered Clouds,230,2014-01-11 07:45:00
1:53 AM,64.9,61.0,87,29.88,6.0,WSW,4.6,-,N/A,,Partly Cloudy,240,2014-01-11 07:53:00
2:30 AM,63.0,61.0,93,29.88,3.0,SW,3.5,-,N/A,,Mostly Cloudy,230,2014-01-11 08:30:00
2:53 AM,63.0,61.0,93,29.88,1.2,WSW,8.1,-,N/A,,Overcast,240,2014-01-11 08:53:00
3:02 AM,63.0,61.0,93,29.88,0.5,SW,6.9,-,N/A,Fog,Fog,230,2014-01-11 09:02:00
3:18 AM,63.0,61.0,93,29.89,2.0,SW,5.8,-,N/A,,Overcast,230,2014-01-11 09:18:00
3:26 AM,63.0,61.0,93,29.89,4.0,SW,6.9,-,N/A,,Overcast,230,2014-01-11 09:26:00
3:53 AM,62.1,60.1,93,29.90,4.0,WSW,4.6,-,N/A,,Overcast,250,2014-01-11 09:53:00
4:53 AM,61.0,59.0,93,29.92,2.5,WSW,4.6,-,N/A,,Overcast,250,2014-01-11 10:53:00
5:06 AM,61.0,59.0,93,29.92,3.0,WSW,5.8,-,N/A,,Overcast,250,2014-01-11 11:06:00
5:53 AM,61.0,57.9,90,29.94,4.0,West,4.6,-,N/A,,Overcast,260,2014-01-11 11:53:00
6:53 AM,59.0,57.0,93,29.97,3.0,SW,4.6,-,N/A,,Mostly Cloudy,230,2014-01-11 12:53:00
7:04 AM,59.0,57.0,93,29.98,3.0,West,5.8,-,N/A,,Scattered Clouds,260,2014-01-11 13:04:00
7:25 AM,57.9,55.9,93,29.99,2.5,West,4.6,-,N/A,,Clear,260,2014-01-11 13:25:00
7:37 AM,57.9,55.9,93,30.00,3.0,WNW,4.6,-,N/A,,Clear,290,2014-01-11 13:37:00
7:53 AM,57.9,55.9,93,30.00,4.0,WNW,4.6,-,N/A,,Clear,290,2014-01-11 13:53:00
8:53 AM,62.1,54.0,75,30.05,9.0,NW,9.2,-,N/A,,Clear,310,2014-01-11 14:53:00
9:53 AM,64.9,52.0,63,30.09,10.0,North,12.7,-,N/A,,Clear,350,2014-01-11 15:53:00
10:53 AM,69.1,44.1,40,30.10,10.0,North,15.0,-,N/A,,Clear,350,2014-01-11 16:53:00
11:53 AM,72.0,39.0,30,30.09,10.0,North,12.7,-,N/A,,Clear,360,2014-01-11 17:53:00
12:53 PM,73.9,36.0,25,30.06,10.0,North,13.8,-,N/A,,Clear,360,2014-01-11 18:53:00
1:53 PM,75.0,33.1,22,30.05,10.0,North,12.7,-,N/A,,Clear,360,2014-01-11 19:53:00
2:53 PM,75.0,27.0,17,30.05,10.0,NNW,11.5,-,N/A,,Clear,340,2014-01-11 20:53:00
3:53 PM,73.0,23.0,15,30.06,10.0,NNW,13.8,-,N/A,,Clear,340,2014-01-11 21:53:00
4:53 PM,72.0,25.0,17,30.08,10.0,NNW,6.9,-,N/A,,Clear,330,2014-01-11 22:53:00
5:53 PM,68.0,21.9,17,30.09,10.0,NNW,8.1,-,N/A,,Clear,340,2014-01-11 23:53:00
6:53 PM,63.0,25.0,24,30.11,10.0,North,4.6,-,N/A,,Clear,360,2014-01-12 00:53:00
7:53 PM,55.0,30.9,40,30.13,10.0,Calm,Calm,-,N/A,,Clear,0,2014-01-12 01:53:00
8:53 PM,51.1,33.1,50,30.15,10.0,Calm,Calm,-,N/A,,Clear,0,2014-01-12 02:53:00
9:53 PM,48.0,34.0,58,30.16,10.0,Calm,Calm,-,N/A,,Clear,0,2014-01-12 03:53:00
10:53 PM,46.9,34.0,61,30.15,10.0,Calm,Calm,-,N/A,,Clear,0,2014-01-12 04:53:00
11:53 PM,46.0,34.0,63,30.14,10.0,Calm,Calm,-,N/A,,Clear,0,2014-01-12 05:53:00